Hourly Weather Roundup
Issued by NWS Central Illinois

Home | Current Version | Previous Version | Text Only | Print | Product List | Glossary On
Versions: 1 2 3 4 5 6 7 8 9 10 11 12 13 14 15 16 17 18 19 20 21 22 23 24 25 26 27 28 29 30 31 32 33 34 35 36 37 38 39 40 41 42 43 44 45 46 47 48 49 50
000
NZUS43 KILX 271010
HWRILX

AREA WEATHER ROUNDUP
NATIONAL WEATHER SERVICE, LINCOLN IL
400 AM CST MON FEB 27 2017


CITY           SKY/WX    TMP DP  RH WIND       PRES   REMARKS
BLOOMINGTON    CLEAR     27  25  92 S3        30.12S
CHAMPAIGN      CLOUDY    33  27  78 E6        30.13S WCI  28
DECATUR        MIX PCPN  38  34  85 CALM      30.11F
EFFINGHAM      CLOUDY    41  36  84 E6        30.14S
FLORA          CLOUDY    43  36  75 SE6       30.15R
GALESBURG      PTCLDY    29  27  92 S5          N/A  WCI  24
JACKSONVILLE   CLOUDY    32  30  92 E5        30.10S WCI  27
LACON          CLEAR     32  28  85 SE3       30.10S
LAWRENCEVILLE  CLOUDY    43  35  73 E7        30.16F
LITCHFIELD     CLOUDY    39  35  86 SE6       30.10R WCI  34
$$


CITY           SKY/WX    TMP DP  RH WIND       PRES   REMARKS
LINCOLN        PTCLDY    28  27  93 CALM      30.12S
MACOMB         CLEAR     26  26  97 CALM      30.10S
MATTOON        CLOUDY    40  34  79 SE8       30.12S WCI  34
MT CARMEL AP   CLOUDY    42  33  70 SE6       30.16S
OLNEY-NOBLE AP CLOUDY    41  36  81 E3        30.15S
PARIS          CLOUDY    39  35  85 E5        30.15F
PEORIA         CLEAR     29  25  85 S5        30.11S WCI  24
PONTIAC        CLEAR     27  26  96 CALM      30.13S
RANTOUL        CLEAR     30  26  82 SE3       30.13F
SPRINGFIELD    CLOUDY    33  30  88 SE3       30.11S
TAYLORVILLE    MOCLDY    36  33  91 N5        30.11R WCI  32
$$

...REGIONAL REPORTS...


CITY           SKY/WX    TMP DP  RH WIND       PRES   REMARKS
CHICAGO O`HARE PTCLDY    27  22  81 S3        30.10R
KANKAKEE       CLEAR     28  24  84 CALM      30.14S
MOLINE         PTCLDY    30  25  81 S3        30.06F
MOUNT STERLING CLOUDY    31  30  96 SE3       30.08S
MOUNT VERNON   CLOUDY    44  35  70 SE5       30.12F
PITTSFIELD     CLOUDY    34  33  95 CALM      30.10R
QUINCY         CLOUDY    33  32  96 SE5       30.07F WCI  29
ROCKFORD       PTCLDY    27  23  85 CALM      30.10S
$$


CITY           SKY/WX    TMP DP  RH WIND       PRES   REMARKS
BURLINGTON     PTCLDY    30  28  92 S3        30.07S
CEDAR RAPIDS   PTCLDY    24  23  96 E7        30.03F WCI  16
DES MOINES     CLEAR     28  21  75 CALM      30.01S
KIRKSVILLE     FOG       23  23 100 CALM      30.05F VSB 1/4
OTTUMWA        CLOUDY    32  29  88 S7        30.04R WCI  26
ST LOUIS       MOCLDY    41  34  76 E6        30.08F
$$


CITY           SKY/WX    TMP DP  RH WIND       PRES   REMARKS
TERRE HAUTE    CLOUDY    40  34  79 E3        30.16S
EVANSVILLE     LGT RAIN  44  37  76 CALM      30.18S
INDIANAPOLIS   CLOUDY    41  33  73 CALM      30.17R
LAFAYETTE      MOCLDY    31  24  75 CALM      30.16R
MADISON        CLEAR     23  20  88 CALM      30.06F
MILWAUKEE      CLEAR     26  19  74 CALM      30.09R
$$






USA.gov is the U.S. government's official web portal to all federal, state and local government web resources and services.